[[{"header":{"parameterUnit":"m.s-1","parameterCategory":1,"la1":30.2991,"la2":30.254,"lo1":-89.0895,"lo2":-89.0444,"dy":0.0017,"dx":0.0017,"nx":28,"ny":28,"refTime":"2024-05-24T09:00:00:Z","depth":0,"parameterNumber":2,"parameterNumberName":"U-component_of_WINDS"},"data":[0,0,0,0,0,0,0,0,0,0,0,0,0,0,0,0,0,0,0,0,0,0,0,0,0,0,0,0,0,0,0,0,0,0,0,0,0,0,0,0,0,0,0,0,0,0,0,0,0,0,0,0,0,0,0,0,0,0,-0.9511,-0.951,0,-0.9478,-0.9477,-0.9477,-0.9431,-0.943,-0.9429,-0.9428,-0.9396,-0.9396,-0.9396,0,0,0,0,0,0,0,0,0,0,0,0,0,-0.9536,-0.9536,-0.9511,-0.951,-0.951,-0.9478,-0.9477,-0.9477,-0.9431,-0.943,-0.9429,-0.9428,-0.9396,-0.9396,-0.9396,0,0,0,0,0,0,0,0,0,0,0,0,0,-0.9516,-0.9535,-0.9511,-0.9483,-0.948,-0.9478,-0.9477,-0.9477,-0.9431,-0.943,-0.9429,-0.9428,-0.9396,-0.9396,-0.9396,-0.9419,0,0,-0.9395,-0.9395,0,0,0,0,0,0,0,0,-0.9517,-0.9515,-0.9488,-0.9485,-0.9482,-0.9457,-0.9474,-0.9457,-0.9431,-0.945,-0.9428,-0.9427,-0.9418,-0.9416,-0.9412,-0.9417,-0.9416,-0.9395,-0.9395,-0.9395,-0.9395,0,0,0,0,0,0,0,-0.9519,-0.9516,-0.9498,-0.9487,-0.9484,-0.9473,-0.9469,-0.9471,-0.9441,-0.9448,-0.9445,-0.9441,-0.9416,-0.9412,-0.9411,-0.9415,-0.9395,-0.9395,-0.9395,-0.9395,-0.9436,-0.9437,0,0,0,0,0,0,-0.9524,-0.9518,-0.9499,-0.9497,-0.9497,-0.9473,-0.9469,-0.9466,-0.9441,-0.9436,-0.9442,-0.9439,-0.9413,-0.9411,-0.941,-0.9433,-0.9395,-0.9395,-0.9395,-0.9435,-0.9436,-0.9437,0,0,0,0,0,0,-0.9525,-0.9523,-0.95,-0.9506,-0.9503,-0.9474,-0.9472,-0.9466,-0.9463,-0.9436,-0.9431,-0.9444,-0.9412,-0.941,-0.9416,-0.9431,-0.9395,-0.9395,-0.9433,-0.9435,-0.9437,-0.948,0,0,0,0,0,0,-0.9526,-0.9523,-0.9531,-0.9507,-0.9502,-0.9507,-0.9473,-0.9466,-0.9462,-0.9458,-0.9436,-0.9432,-0.9411,-0.9417,-0.9416,-0.943,-0.9395,-0.9432,-0.9434,-0.9436,-0.9477,-0.9483,-0.9488,0,0,0,0,0,-0.9527,-0.9545,-0.9532,-0.953,-0.9512,-0.9508,-0.9505,-0.948,-0.9464,-0.9471,-0.9454,-0.9432,-0.943,-0.9418,-0.9417,-0.9431,-0.9431,-0.9433,-0.9436,-0.9475,-0.9482,-0.9488,0,0,0,0,0,0,-0.9573,-0.9542,-0.9526,-0.9537,-0.9526,-0.95,-0.9509,-0.9489,-0.9482,-0.9479,-0.9449,-0.9445,-0.9454,-0.9444,-0.943,-0.9451,-0.9427,-0.943,-0.9457,-0.9463,-0.9469,-0.947,-0.9395,0,0,0,0,0,-0.9584,-0.9583,-0.9556,-0.9569,-0.9564,-0.9538,-0.9535,-0.9517,-0.9504,-0.9498,-0.9482,-0.947,-0.9467,-0.9465,-0.946,-0.9476,-0.947,-0.9485,-0.9491,-0.9496,-0.9498,-0.9504,-0.951,-0.9446,-0.9446,-0.9446,0,0,-0.9608,-0.9591,-0.9592,-0.9578,-0.9566,-0.9566,-0.9534,-0.9535,-0.9534,-0.9499,-0.9503,-0.9491,-0.9476,-0.9487,-0.9491,-0.9478,-0.9514,-0.9499,-0.9503,-0.9502,-0.9507,-0.9513,-0.9518,-0.9448,-0.9448,-0.9447,0,0,-0.965,-0.9638,-0.9646,-0.9635,-0.9618,-0.96,-0.9602,-0.958,-0.957,-0.9574,-0.9547,-0.9546,-0.9541,-0.9531,-0.9525,-0.9564,-0.9543,-0.9564,-0.9592,-0.9598,-0.9603,-0.9607,-0.9619,-0.9624,-0.9566,-0.9567,-0.9567,0,-0.9681,-0.9679,-0.9653,-0.9655,-0.9649,-0.9617,-0.9625,-0.9616,-0.9599,-0.9596,-0.9582,-0.9574,-0.9562,-0.9569,-0.9578,-0.9576,-0.9577,-0.9565,-0.9605,-0.9609,-0.9612,-0.9623,-0.9628,-0.9569,-0.9569,-0.9568,-0.9568,0,-0.9717,-0.9717,-0.9725,-0.9708,-0.9704,-0.9709,-0.9684,-0.9683,-0.9666,-0.965,-0.9654,-0.9638,-0.9629,-0.963,-0.9614,-0.9635,-0.9627,-0.961,-0.9585,-0.9621,-0.9631,-0.9635,-0.9572,-0.9572,-0.9571,-0.957,0,0,-0.9786,-0.9754,-0.9758,-0.9749,-0.9728,-0.9727,-0.9731,-0.9722,-0.9721,-0.9711,-0.9712,-0.9709,-0.9692,-0.9686,-0.9668,-0.9674,-0.9704,-0.9656,-0.9655,-0.9663,-0.9724,-0.9736,-0.9741,-0.9691,-0.9692,-0.9692,-0.9725,0,-0.9822,-0.9826,-0.9803,-0.9813,-0.9811,-0.9781,-0.9785,-0.9772,-0.9758,-0.9755,-0.9739,-0.9736,-0.9715,-0.9711,-0.9716,-0.9699,-0.9715,-0.9697,-0.9691,-0.9692,-0.9694,-0.9747,-0.9759,-0.979,-0.9729,-0.9729,-0.973,0,-0.9865,-0.9855,-0.9865,-0.9843,-0.9841,-0.9845,-0.9833,-0.9831,-0.9817,-0.9806,-0.9799,-0.9779,-0.9781,-0.9759,-0.9762,-0.975,-0.9747,-0.9739,-0.9739,-0.9736,-0.9711,-0.9743,-0.98,-0.9804,-0.9736,-0.9735,-0.9735,0,-0.9911,-0.9902,-0.9906,-0.99,-0.9874,-0.9877,-0.9867,-0.9851,-0.9847,-0.9838,-0.9834,-0.9827,-0.9822,-0.9816,-0.9794,-0.978,-0.9799,-0.9775,-0.9789,-0.9789,-0.9792,-0.9792,-0.9848,-0.9794,-0.9794,-0.9794,-0.9794,0,-0.9953,-0.996,-0.9926,-0.9928,-0.9935,-0.9908,-0.9916,-0.9903,-0.9889,-0.9888,-0.9863,-0.9863,-0.9835,-0.9832,-0.9816,-0.9819,-0.9818,-0.9809,-0.9804,-0.981,-0.9811,-0.9806,-0.9802,-0.9795,-0.9795,-0.9795,-0.9795,0,-1.0005,-0.9983,-0.9985,-0.9961,-0.9955,-0.996,-0.994,-0.9941,-0.9925,-0.9925,-0.9923,-0.9899,-0.9894,-0.9872,-0.9863,-0.9851,-0.986,-0.9852,-0.9864,-0.9861,-0.9875,-0.9873,-0.9927,-0.9932,-0.9878,-0.9879,-0.9879,0,-1.0032,-1.0036,-1.0012,-1.0009,-1.0,-0.9996,-0.9991,-0.9966,-0.9962,-0.9946,-0.9949,-0.9942,-0.9934,-0.9928,-0.991,-0.9902,-0.9892,-0.9912,-0.9891,-0.9896,-0.989,-0.9889,-0.9889,-0.9916,-0.9916,-0.9917,-0.9917,0,-1.0081,-1.007,-1.0063,-1.0053,-1.0047,-1.0038,-1.0028,-1.0027,-0.9999,-0.9996,-0.999,-0.9985,-0.9974,-0.9967,-0.9957,-0.9946,-0.9927,-0.9925,-0.9927,-0.9932,-0.9938,-0.9932,-0.9874,-0.9923,-0.9922,-0.9922,-0.9922,-0.9921,-1.012,-1.0121,-1.0104,-1.0098,-1.0087,-1.0078,-1.0077,-1.0061,-1.0056,-1.0044,-1.003,-1.0026,-1.0012,-0.9995,-0.9986,-0.9983,-0.9972,-0.9976,-0.9977,-0.9977,-0.9979,-0.994,-0.9981,-0.9981,-0.9981,-0.9981,-0.9981,0,-1.0166,-1.0153,-1.0148,-1.0133,-1.0128,-1.011,-1.0098,-1.0094,-1.009,-1.0078,-1.0071,-1.0065,-1.0058,-1.0039,-1.003,-1.0031,-1.0022,-1.0029,-1.0028,-1.0026,-0.9991,-0.9988,-1.0037,-1.0037,-1.0037,-1.0037,-1.0037,-1.0037,-1.0189,-1.019,-1.0177,-1.0173,-1.0161,-1.0156,-1.015,-1.0141,-1.0131,-1.0124,-1.0117,-1.0105,-1.009,-1.008,-1.0073,-1.0068,-1.0065,-1.0075,-1.0066,-1.0034,-1.0028,-1.0023,-1.0021,-1.0075,-1.0075,-1.0101,-1.0101,-1.0102]},{"header":{"parameterUnit":"m.s-1","parameterCategory":1,"la1":30.2991,"la2":30.254,"lo1":-89.0895,"lo2":-89.0444,"dy":0.0017,"dx":0.0017,"nx":28,"ny":28,"refTime":"2024-05-24T09:00:00:Z","depth":0,"parameterNumber":3,"parameterNumberName":"V-component_of_WINDS"},"data":[0,0,0,0,0,0,0,0,0,0,0,0,0,0,0,0,0,0,0,0,0,0,0,0,0,0,0,0,0,0,0,0,0,0,0,0,0,0,0,0,0,0,0,0,0,0,0,0,0,0,0,0,0,0,0,0,0,0,4.2658,4.2658,0,4.2681,4.2681,4.2681,4.2715,4.2716,4.2716,4.2717,4.2737,4.2737,4.2737,0,0,0,0,0,0,0,0,0,0,0,0,0,4.264,4.264,4.2658,4.2658,4.2658,4.2681,4.2681,4.2681,4.2715,4.2716,4.2716,4.2717,4.2737,4.2737,4.2737,0,0,0,0,0,0,0,0,0,0,0,0,0,4.2654,4.264,4.2658,4.2678,4.268,4.2681,4.2681,4.2682,4.2715,4.2716,4.2717,4.2717,4.2737,4.2737,4.2737,4.2718,0,0,4.2736,4.2736,0,0,0,0,0,0,0,0,4.2653,4.2654,4.2675,4.2676,4.2679,4.2696,4.2682,4.2694,4.2715,4.2701,4.2717,4.2718,4.2722,4.2723,4.2726,4.2719,4.272,4.2736,4.2736,4.2736,4.2736,0,0,0,0,0,0,0,4.2652,4.2653,4.2667,4.2675,4.2677,4.2685,4.2688,4.2685,4.2706,4.2703,4.2705,4.2708,4.2723,4.2726,4.2726,4.272,4.2736,4.2736,4.2736,4.2736,4.2702,4.2701,0,0,0,0,0,0,4.2648,4.2652,4.2666,4.2667,4.2668,4.2684,4.2688,4.269,4.2707,4.271,4.2707,4.2709,4.2725,4.2726,4.2727,4.2708,4.2736,4.2736,4.2736,4.2703,4.2702,4.2701,0,0,0,0,0,0,4.2648,4.2649,4.2665,4.2661,4.2663,4.2684,4.2686,4.269,4.2692,4.271,4.2714,4.2705,4.2726,4.2727,4.2721,4.2709,4.2736,4.2736,4.2704,4.2702,4.2701,4.2669,0,0,0,0,0,0,4.2647,4.2649,4.2643,4.266,4.2663,4.2659,4.2685,4.2689,4.2692,4.2695,4.2709,4.2712,4.2727,4.2721,4.2721,4.2709,4.2736,4.2705,4.2703,4.2702,4.2671,4.2666,4.2662,0,0,0,0,0,4.2646,4.2631,4.2642,4.2643,4.2656,4.2658,4.266,4.2678,4.2691,4.2685,4.2697,4.2712,4.271,4.272,4.272,4.2709,4.2706,4.2704,4.2702,4.2673,4.2667,4.2663,0,0,0,0,0,0,4.261,4.2634,4.2646,4.2637,4.2645,4.2664,4.2656,4.2671,4.2676,4.2678,4.2699,4.2702,4.2693,4.27,4.271,4.2693,4.271,4.2708,4.2688,4.2683,4.2679,4.2677,4.2736,0,0,0,0,0,4.2601,4.2602,4.2622,4.2612,4.2616,4.2635,4.2637,4.265,4.266,4.2663,4.2674,4.2682,4.2684,4.2684,4.2686,4.2672,4.2676,4.2664,4.266,4.2657,4.2655,4.2649,4.2644,4.2694,4.2694,4.2694,0,0,4.2582,4.2595,4.2594,4.2605,4.2613,4.2613,4.2638,4.2636,4.2636,4.2662,4.2658,4.2666,4.2676,4.2667,4.2663,4.2672,4.2642,4.2654,4.2651,4.2651,4.2646,4.2641,4.2637,4.2693,4.2693,4.2693,0,0,4.2547,4.2557,4.2551,4.2559,4.2572,4.2586,4.2584,4.2601,4.2608,4.2604,4.2624,4.2624,4.2626,4.2632,4.2636,4.2606,4.262,4.2606,4.2584,4.2578,4.2574,4.2571,4.256,4.2556,4.2604,4.2604,4.2604,0,4.2521,4.2523,4.2545,4.2542,4.2547,4.2572,4.2565,4.2572,4.2584,4.2587,4.2597,4.2601,4.2609,4.2602,4.2595,4.2597,4.2596,4.2604,4.2573,4.257,4.2567,4.2557,4.2553,4.2602,4.2602,4.2602,4.2602,0,4.2491,4.2492,4.2485,4.2498,4.2502,4.2497,4.2517,4.2518,4.2531,4.2543,4.2539,4.2551,4.2556,4.2556,4.2568,4.255,4.2556,4.2569,4.2588,4.256,4.2551,4.2548,4.2599,4.26,4.26,4.2601,0,0,4.2433,4.246,4.2457,4.2464,4.2481,4.2482,4.2478,4.2486,4.2486,4.2494,4.2491,4.2493,4.2507,4.2511,4.2524,4.2519,4.2495,4.2533,4.2534,4.2526,4.2477,4.2467,4.2462,4.2505,4.2505,4.2504,4.2477,0,4.2402,4.2399,4.2419,4.241,4.2411,4.2437,4.2434,4.2443,4.2455,4.2457,4.2469,4.2471,4.2488,4.2491,4.2487,4.2499,4.2486,4.2501,4.2503,4.2502,4.25,4.2458,4.2447,4.242,4.2473,4.2473,4.2472,0,4.2365,4.2373,4.2365,4.2384,4.2386,4.2383,4.2392,4.2393,4.2405,4.2414,4.2419,4.2436,4.2433,4.2451,4.2448,4.2458,4.246,4.2466,4.2465,4.2466,4.2486,4.2457,4.2412,4.2408,4.2467,4.2467,4.2468,0,4.2324,4.2333,4.233,4.2335,4.2357,4.2354,4.2363,4.2376,4.238,4.2387,4.2389,4.2396,4.2399,4.2403,4.2421,4.2432,4.2415,4.2434,4.2422,4.2422,4.2417,4.2417,4.2371,4.2418,4.2418,4.2418,4.2418,0,4.2287,4.2281,4.2312,4.231,4.2304,4.2327,4.232,4.2332,4.2343,4.2343,4.2365,4.2364,4.2387,4.2389,4.2402,4.2398,4.2399,4.2406,4.2409,4.2404,4.2403,4.2405,4.2408,4.2417,4.2417,4.2418,4.2418,0,4.224,4.2261,4.2259,4.2281,4.2286,4.2281,4.2299,4.2298,4.2312,4.2311,4.2313,4.2333,4.2337,4.2355,4.2362,4.2371,4.2362,4.2369,4.2358,4.2361,4.2348,4.2349,4.2302,4.2297,4.2346,4.2346,4.2345,0,4.2216,4.2212,4.2234,4.2237,4.2245,4.2249,4.2253,4.2276,4.2279,4.2293,4.229,4.2296,4.2301,4.2306,4.2321,4.2326,4.2334,4.2317,4.2335,4.233,4.2334,4.2334,4.2334,4.2313,4.2312,4.2312,4.2311,0,4.217,4.2181,4.2187,4.2197,4.2202,4.221,4.222,4.222,4.2245,4.2248,4.2253,4.2257,4.2266,4.2271,4.228,4.2288,4.2303,4.2306,4.2304,4.2298,4.2292,4.2296,4.2348,4.2307,4.2307,4.2308,4.2308,4.2308,4.2134,4.2132,4.2148,4.2155,4.2165,4.2174,4.2174,4.2189,4.2193,4.2203,4.2216,4.2219,4.2232,4.2245,4.2252,4.2255,4.2264,4.226,4.2259,4.2258,4.2255,4.2292,4.2256,4.2256,4.2257,4.2257,4.2257,0,4.2089,4.2102,4.2107,4.2121,4.2126,4.2143,4.2155,4.2157,4.2161,4.2172,4.2178,4.2183,4.2189,4.2205,4.2212,4.2211,4.2219,4.2212,4.2212,4.2214,4.2247,4.2248,4.2206,4.2206,4.2206,4.2206,4.2206,4.2206,4.2067,4.2066,4.2079,4.2083,4.2095,4.2099,4.2105,4.2113,4.2122,4.2129,4.2134,4.2145,4.2158,4.2167,4.2173,4.2177,4.2179,4.217,4.2177,4.2207,4.2212,4.2216,4.2218,4.217,4.217,4.2145,4.2144,4.2144]}]]